Location: Hopville
(44.8032°N, 123.1329°W)
Time: 04:52:26
(UTC+00:00)

COSMOS 2428 - Pass Details

Date: 24 January 2021
Orbit: 848 x 855 km, 70.9° (Epoch: 26 February)

Event Time Altitude Azimuth Distance (km) Brightness Sun altitude
Exits shadow 13:29:32 32° 332° (NNW) 1,431 3.6 -23.0°
Drops below altitude 10° 13:33:31 10° 11° (NNE) 2,483 5.2 -22.3°
Sets 13:36:12 0° 21° (NNE) 3,422 6.1 -21.8°
